QPF
0.00 0.00 0.01 0.01 0.01 0.01 0.02 0.03 0.04 0.04 0.02 0.02 0.03 0.04 0.04 0.05 0.05 0.06 0.06 0.07 0.06 0.07 0.07 0.06 0.07 0.08 0.08 0.07 0.07 0.06 0.05 0.04 0.03 0.03 0.04 0.04 0.04 0.03
0.00 0.00 0.00 0.00 0.01 0.01 0.02 0.02 0.03 0.05 0.04 0.02 0.02 0.03 0.04 0.04 0.06 0.04 0.04 0.07 0.07 0.05 0.05 0.05 0.05 0.05 0.06 0.07 0.07 0.06 0.05 0.04 0.04 0.03 0.03 0.02 0.02 0.02
0.00 0.00 0.00 0.00 0.00 0.00 0.01 0.01 0.02 0.05 0.07 0.04 0.02 0.02 0.03 0.04 0.05 0.05 0.04 0.05 0.07 0.06 0.05 0.05 0.05 0.05 0.05 0.05 0.06 0.06 0.06 0.05 0.04 0.04 0.03 0.03 0.02 0.02
0.00 0.00 0.00 0.00 0.00 0.00 0.01 0.01 0.01 0.03 0.06 0.07 0.04 0.02 0.02 0.03 0.04 0.05 0.06 0.05 0.05 0.07 0.05 0.04 0.05 0.05 0.05 0.05 0.05 0.05 0.05 0.04 0.04 0.03 0.03 0.04 0.03 0.02
0.00 0.00 0.00 0.00 0.01 0.01 0.01 0.01 0.01 0.01 0.03 0.06 0.05 0.03 0.02 0.02 0.03 0.04 0.04 0.05 0.05 0.06 0.06 0.04 0.04 0.05 0.05 0.05 0.06 0.05 0.06 0.06 0.05 0.03 0.03 0.03 0.03 0.03
0.00 0.00 0.00 0.00 0.00 0.01 0.01 0.01 0.01 0.01 0.01 0.03 0.05 0.04 0.03 0.03 0.03 0.03 0.03 0.03 0.05 0.07 0.07 0.05 0.05 0.05 0.05 0.06 0.06 0.05 0.04 0.04 0.05 0.05 0.03 0.03 0.03 0.03
0.00 0.00 0.00 0.00 0.01 0.01 0.01 0.01 0.01 0.01 0.01 0.02 0.03 0.05 0.04 0.04 0.03 0.02 0.02 0.02 0.04 0.06 0.08 0.07 0.06 0.05 0.04 0.04 0.05 0.05 0.05 0.04 0.04 0.04 0.04 0.04 0.03 0.02
0.00 0.00 0.00 0.00 0.00 0.00 0.01 0.01 0.01 0.01 0.01 0.02 0.02 0.04 0.05 0.04 0.04 0.03 0.02 0.02 0.04 0.05 0.07 0.08 0.07 0.06 0.05 0.04 0.04 0.05 0.05 0.05 0.04 0.04 0.04 0.04 0.04 0.03
0.00 0.00 0.00 0.00 0.00 0.01 0.01 0.01 0.01 0.01 0.01 0.01 0.02 0.02 0.04 0.04 0.04 0.04 0.03 0.02 0.03 0.05 0.07 0.09 0.11 0.09 0.06 0.06 0.06 0.05 0.06 0.06 0.05 0.05 0.05 0.05 0.04 0.04
0.00 0.00 0.00 0.00 0.00 0.01 0.01 0.01 0.01 0.01 0.01 0.01 0.01 0.01 0.02 0.04 0.05 0.05 0.04 0.03 0.03 0.05 0.06 0.08 0.09 0.09 0.09 0.08 0.08 0.06 0.05 0.07 0.07 0.06 0.06 0.05 0.05 0.04
0.00 0.00 0.00 0.00 0.00 0.00 0.01 0.01 0.01 0.01 0.02 0.03 0.02 0.01 0.02 0.03 0.06 0.05 0.05 0.03 0.03 0.04 0.06 0.07 0.08 0.09 0.09 0.09 0.10 0.10 0.07 0.06 0.07 0.08 0.07 0.06 0.06 0.06
0.00 0.00 0.00 0.00 0.00 0.00 0.01 0.01 0.01 0.02 0.03 0.03 0.02 0.02 0.02 0.02 0.04 0.05 0.05 0.04 0.03 0.04 0.06 0.07 0.08 0.09 0.11 0.12 0.11 0.10 0.09 0.08 0.07 0.08 0.08 0.07 0.06 0.05
0.00 0.00 0.00 0.00 0.00 0.00 0.00 0.01 0.01 0.02 0.02 0.02 0.03 0.03 0.03 0.03 0.03 0.04 0.05 0.04 0.03 0.04 0.05 0.08 0.09 0.09 0.07 0.09 0.13 0.13 0.11 0.09 0.08 0.07 0.09 0.09 0.08 0.06
0.00 0.00 0.00 0.00 0.00 0.00 0.00 0.00 0.01 0.02 0.02 0.02 0.03 0.03 0.03 0.03 0.03 0.04 0.04 0.05 0.05 0.05 0.05 0.08 0.10 0.11 0.09 0.08 0.11 0.14 0.15 0.13 0.12 0.10 0.09 0.12 0.12 0.10
0.00 0.00 0.00 0.00 0.00 0.00 0.00 0.00 0.01 0.01 0.02 0.02 0.02 0.03 0.03 0.04 0.05 0.05 0.06 0.06 0.07 0.06 0.05 0.07 0.10 0.13 0.14 0.12 0.11 0.14 0.16 0.16 0.15 0.14 0.13 0.11 0.10 0.09
0.00 0.00 0.00 0.00 0.00 0.00 0.00 0.01 0.01 0.02 0.03 0.02 0.03 0.03 0.03 0.04 0.05 0.07 0.08 0.08 0.07 0.07 0.06 0.06 0.10 0.11 0.13 0.15 0.14 0.13 0.15 0.16 0.15 0.14 0.14 0.13 0.11 0.08
0.00 0.00 0.00 0.00 0.01 0.01 0.01 0.01 0.01 0.01 0.03 0.02 0.02 0.03 0.03 0.04 0.05 0.07 0.10 0.10 0.07 0.06 0.06 0.07 0.10 0.11 0.10 0.13 0.13 0.14 0.16 0.18 0.18 0.16 0.15 0.14 0.12 0.09
0.00 0.00 0.00 0.01 0.01 0.01 0.01 0.01 0.02 0.02 0.02 0.03 0.03 0.03 0.04 0.04 0.05 0.08 0.11 0.11 0.08 0.06 0.06 0.08 0.09 0.10 0.12 0.14 0.15 0.14 0.17 0.20 0.21 0.20 0.18 0.15 0.13 0.11
0.00 0.00 0.00 0.01 0.01 0.01 0.01 0.02 0.02 0.02 0.02 0.02 0.02 0.02 0.04 0.04 0.04 0.07 0.10 0.11 0.08 0.07 0.07 0.09 0.09 0.08 0.10 0.12 0.13 0.14 0.16 0.18 0.21 0.21 0.20 0.17 0.13 0.10
0.01 0.01 0.01 0.01 0.01 0.01 0.01 0.02 0.02 0.03 0.03 0.02 0.02 0.02 0.02 0.02 0.03 0.06 0.09 0.11 0.08 0.06 0.08 0.08 0.08 0.07 0.07 0.10 0.10 0.12 0.17 0.19 0.18 0.19 0.19 0.18 0.16 0.15
0.02 0.02 0.02 0.01 0.01 0.01 0.01 0.02 0.02 0.03 0.02 0.02 0.02 0.02 0.02 0.02 0.03 0.05 0.07 0.08 0.08 0.07 0.07 0.07 0.06 0.08 0.09 0.10 0.10 0.11 0.15 0.20 0.21 0.18 0.19 0.18 0.17 0.15
0.02 0.01 0.01 0.01 0.01 0.01 0.01 0.02 0.02 0.02 0.03 0.03 0.02 0.02 0.03 0.03 0.03 0.05 0.06 0.06 0.05 0.05 0.06 0.07 0.09 0.09 0.09 0.11 0.10 0.10 0.13 0.15 0.18 0.21 0.21 0.19 0.15 0.13
0.01 0.01 0.01 0.01 0.01 0.01 0.02 0.02 0.02 0.02 0.02 0.02 0.02 0.02 0.02 0.03 0.04 0.05 0.05 0.06 0.06 0.05 0.05 0.07 0.08 0.07 0.07 0.08 0.10 0.10 0.10 0.12 0.14 0.15 0.17 0.18 0.16 0.14
MSLP
1015.71 1015.74 1015.83 1015.93 1016.01 1016.03 1015.95 1015.77 1015.48 1015.11 1014.68 1014.25 1013.84 1013.49 1013.22 1013.03 1012.92 1012.89 1012.93 1013.03 1013.17 1013.37 1013.61 1013.88 1014.17 1014.49 1014.82 1015.16 1015.50 1015.84 1016.21 1016.59 1016.99 1017.43 1017.91 1018.41 1018.92 1019.44
1015.55 1015.52 1015.54 1015.59 1015.63 1015.63 1015.56 1015.41 1015.19 1014.89 1014.55 1014.20 1013.85 1013.55 1013.30 1013.10 1012.97 1012.90 1012.88 1012.91 1012.98 1013.09 1013.24 1013.42 1013.63 1013.86 1014.10 1014.36 1014.64 1014.93 1015.25 1015.60 1015.99 1016.43 1016.92 1017.44 1017.98 1018.53
1015.37 1015.28 1015.23 1015.22 1015.20 1015.17 1015.09 1014.97 1014.78 1014.56 1014.31 1014.04 1013.78 1013.55 1013.35 1013.18 1013.05 1012.95 1012.88 1012.84 1012.84 1012.86 1012.92 1013.01 1013.13 1013.27 1013.43 1013.61 1013.82 1014.06 1014.34 1014.66 1015.03 1015.47 1015.96 1016.49 1017.05 1017.61
1015.19 1015.04 1014.93 1014.84 1014.76 1014.68 1014.58 1014.46 1014.32 1014.16 1013.98 1013.80 1013.64 1013.48 1013.34 1013.21 1013.09 1012.97 1012.87 1012.78 1012.71 1012.65 1012.62 1012.62 1012.65 1012.70 1012.78 1012.89 1013.04 1013.23 1013.47 1013.76 1014.12 1014.54 1015.03 1015.56 1016.13 1016.71
1015.00 1014.81 1014.64 1014.48 1014.34 1014.21 1014.08 1013.95 1013.83 1013.71 1013.59 1013.49 1013.40 1013.32 1013.23 1013.14 1013.04 1012.93 1012.81 1012.67 1012.54 1012.42 1012.31 1012.22 1012.16 1012.14 1012.15 1012.20 1012.29 1012.43 1012.64 1012.91 1013.24 1013.66 1014.13 1014.66 1015.23 1015.81
1014.80 1014.58 1014.36 1014.15 1013.96 1013.77 1013.61 1013.46 1013.34 1013.24 1013.17 1013.12 1013.09 1013.06 1013.03 1012.97 1012.90 1012.79 1012.65 1012.49 1012.31 1012.13 1011.96 1011.80 1011.67 1011.58 1011.53 1011.52 1011.57 1011.67 1011.84 1012.08 1012.40 1012.79 1013.25 1013.77 1014.33 1014.91
1014.59 1014.35 1014.10 1013.85 1013.61 1013.39 1013.18 1013.01 1012.88 1012.78 1012.73 1012.71 1012.71 1012.72 1012.72 1012.69 1012.63 1012.53 1012.39 1012.21 1012.00 1011.78 1011.56 1011.35 1011.17 1011.03 1010.92 1010.86 1010.86 1010.92 1011.06 1011.27 1011.57 1011.94 1012.38 1012.89 1013.45 1014.03
1014.35 1014.11 1013.85 1013.58 1013.30 1013.04 1012.80 1012.60 1012.44 1012.34 1012.28 1012.26 1012.27 1012.29 1012.31 1012.30 1012.26 1012.16 1012.02 1011.84 1011.62 1011.38 1011.13 1010.89 1010.67 1010.48 1010.33 1010.23 1010.19 1010.21 1010.31 1010.49 1010.75 1011.10 1011.53 1012.03 1012.57 1013.15
1014.10 1013.86 1013.59 1013.31 1013.02 1012.73 1012.46 1012.22 1012.04 1011.91 1011.83 1011.79 1011.79 1011.82 1011.84 1011.83 1011.79 1011.71 1011.58 1011.40 1011.18 1010.94 1010.68 1010.43 1010.18 1009.97 1009.78 1009.65 1009.56 1009.55 1009.60 1009.75 1009.97 1010.29 1010.70 1011.18 1011.72 1012.31
1013.83 1013.60 1013.34 1013.05 1012.74 1012.43 1012.14 1011.88 1011.66 1011.49 1011.38 1011.32 1011.29 1011.30 1011.30 1011.30 1011.26 1011.19 1011.07 1010.91 1010.71 1010.48 1010.23 1009.98 1009.73 1009.50 1009.29 1009.12 1009.00 1008.94 1008.96 1009.06 1009.25 1009.54 1009.92 1010.39 1010.93 1011.51
1013.55 1013.34 1013.08 1012.79 1012.48 1012.16 1011.84 1011.55 1011.29 1011.09 1010.94 1010.84 1010.78 1010.76 1010.74 1010.73 1010.69 1010.63 1010.53 1010.39 1010.22 1010.02 1009.79 1009.56 1009.32 1009.08 1008.86 1008.66 1008.51 1008.41 1008.39 1008.45 1008.60 1008.85 1009.21 1009.66 1010.19 1010.78
1013.27 1013.06 1012.82 1012.53 1012.21 1011.88 1011.54 1011.22 1010.94 1010.70 1010.50 1010.36 1010.27 1010.21 1010.17 1010.15 1010.11 1010.05 1009.97 1009.87 1009.73 1009.56 1009.37 1009.16 1008.94 1008.71 1008.48 1008.27 1008.09 1007.96 1007.89 1007.91 1008.02 1008.24 1008.56 1008.99 1009.51 1010.10
1012.98 1012.79 1012.55 1012.26 1011.94 1011.60 1011.25 1010.91 1010.59 1010.31 1010.08 1009.90 1009.77 1009.68 1009.62 1009.58 1009.53 1009.48 1009.42 1009.34 1009.24 1009.11 1008.96 1008.78 1008.58 1008.36 1008.14 1007.92 1007.72 1007.56 1007.46 1007.43 1007.51 1007.69 1007.98 1008.39 1008.89 1009.47
1012.69 1012.51 1012.27 1011.99 1011.67 1011.32 1010.95 1010.59 1010.24 1009.94 1009.68 1009.47 1009.31 1009.19 1009.10 1009.03 1008.98 1008.94 1008.89 1008.83 1008.75 1008.66 1008.54 1008.40 1008.22 1008.03 1007.82 1007.60 1007.39 1007.21 1007.08 1007.02 1007.06 1007.20 1007.46 1007.83 1008.31 1008.87
1012.38 1012.21 1011.98 1011.70 1011.37 1011.01 1010.64 1010.26 1009.90 1009.58 1009.30 1009.06 1008.88 1008.73 1008.62 1008.54 1008.48 1008.43 1008.38 1008.33 1008.27 1008.20 1008.11 1008.00 1007.86 1007.69 1007.50 1007.29 1007.09 1006.90 1006.74 1006.66 1006.66 1006.77 1006.98 1007.32 1007.77 1008.30
1012.04 1011.88 1011.66 1011.38 1011.04 1010.68 1010.29 1009.91 1009.55 1009.22 1008.93 1008.68 1008.48 1008.33 1008.20 1008.10 1008.02 1007.96 1007.90 1007.85 1007.80 1007.75 1007.68 1007.59 1007.48 1007.34 1007.17 1006.99 1006.79 1006.61 1006.45 1006.35 1006.33 1006.40 1006.58 1006.87 1007.28 1007.78
1011.65 1011.49 1011.28 1010.99 1010.66 1010.29 1009.91 1009.53 1009.18 1008.85 1008.57 1008.33 1008.13 1007.97 1007.83 1007.72 1007.62 1007.54 1007.47 1007.41 1007.35 1007.30 1007.25 1007.18 1007.09 1006.98 1006.85 1006.70 1006.53 1006.36 1006.21 1006.10 1006.07 1006.11 1006.26 1006.51 1006.86 1007.32
1011.17 1011.02 1010.80 1010.52 1010.19 1009.83 1009.46 1009.10 1008.76 1008.47 1008.20 1007.98 1007.79 1007.64 1007.50 1007.38 1007.27 1007.16 1007.08 1007.00 1006.93 1006.87 1006.82 1006.77 1006.71 1006.64 1006.54 1006.43 1006.30 1006.17 1006.05 1005.96 1005.92 1005.95 1006.06 1006.27 1006.58 1006.98
1010.58 1010.43 1010.22 1009.94 1009.61 1009.27 1008.92 1008.59 1008.29 1008.03 1007.81 1007.62 1007.47 1007.32 1007.19 1007.07 1006.95 1006.83 1006.72 1006.62 1006.53 1006.47 1006.42 1006.39 1006.35 1006.32 1006.28 1006.22 1006.14 1006.06 1005.98 1005.92 1005.90 1005.92 1006.02 1006.20 1006.46 1006.80
1009.85 1009.71 1009.49 1009.22 1008.91 1008.59 1008.28 1008.00 1007.75 1007.54 1007.38 1007.24 1007.12 1007.01 1006.89 1006.77 1006.64 1006.51 1006.38 1006.26 1006.16 1006.09 1006.05 1006.03 1006.03 1006.04 1006.06 1006.06 1006.06 1006.04 1006.02 1006.01 1006.01 1006.05 1006.14 1006.29 1006.52 1006.82
1008.98 1008.84 1008.63 1008.37 1008.09 1007.81 1007.55 1007.33 1007.15 1007.01 1006.90 1006.82 1006.74 1006.67 1006.58 1006.47 1006.34 1006.20 1006.05 1005.92 1005.82 1005.75 1005.72 1005.72 1005.76 1005.82 1005.89 1005.97 1006.04 1006.10 1006.15 1006.20 1006.25 1006.32 1006.42 1006.56 1006.76 1007.01
1007.97 1007.83 1007.63 1007.41 1007.17 1006.95 1006.75 1006.59 1006.49 1006.42 1006.39 1006.37 1006.35 1006.31 1006.25 1006.15 1006.03 1005.89 1005.74 1005.60 1005.49 1005.43 1005.41 1005.44 1005.52 1005.64 1005.77 1005.92 1006.07 1006.21 1006.34 1006.45 1006.56 1006.66 1006.79 1006.93 1007.12 1007.34
1006.84 1006.71 1006.54 1006.36 1006.18 1006.03 1005.91 1005.84 1005.82 1005.83 1005.87 1005.91 1005.94 1005.94 1005.91 1005.83 1005.71 1005.57 1005.43 1005.29 1005.19 1005.14 1005.14 1005.20 1005.32 1005.48 1005.68 1005.90 1006.11 1006.33 1006.53 1006.71 1006.87 1007.02 1007.17 1007.34 1007.52 1007.73
Thickness
5644 5644 5642 5643 5643 5643 5644 5644 5643 5643 5649 5658 5666 5674 5679 5682 5686 5689 5692 5696 5699 5701 5703 5704 5706 5707 5709 5710 5711 5712 5712 5713 5713 5713 5712 5712 5711 5711
5637 5636 5635 5635 5635 5636 5636 5637 5638 5638 5641 5648 5655 5662 5668 5674 5678 5682 5686 5689 5692 5695 5697 5699 5701 5703 5705 5707 5708 5710 5711 5711 5711 5711 5712 5712 5711 5711
5629 5628 5627 5627 5627 5627 5628 5629 5630 5631 5633 5640 5646 5653 5658 5663 5669 5674 5678 5682 5686 5689 5691 5694 5697 5699 5701 5703 5705 5707 5708 5709 5710 5710 5710 5711 5711 5711
5621 5620 5619 5619 5619 5619 5619 5620 5622 5624 5626 5630 5635 5641 5647 5653 5659 5664 5670 5674 5678 5681 5685 5688 5691 5694 5696 5699 5701 5703 5705 5706 5708 5708 5709 5709 5710 5710
5614 5612 5611 5610 5610 5610 5611 5612 5613 5617 5618 5621 5625 5630 5635 5642 5647 5653 5660 5665 5669 5674 5678 5682 5685 5688 5691 5694 5697 5699 5701 5703 5705 5706 5707 5708 5708 5709
5607 5605 5604 5603 5602 5602 5603 5604 5605 5606 5608 5610 5614 5618 5623 5630 5634 5639 5645 5652 5658 5665 5670 5675 5679 5683 5687 5690 5693 5695 5698 5700 5702 5703 5705 5706 5707 5708
5599 5598 5597 5597 5597 5596 5597 5596 5596 5597 5598 5600 5603 5607 5612 5616 5621 5627 5633 5640 5647 5654 5660 5667 5671 5676 5680 5684 5688 5692 5695 5697 5698 5700 5702 5703 5704 5705
5592 5591 5590 5590 5590 5590 5590 5590 5590 5589 5589 5590 5593 5597 5602 5607 5612 5617 5621 5627 5634 5644 5649 5656 5662 5667 5674 5678 5684 5687 5690 5693 5695 5697 5699 5701 5702 5702
5586 5583 5583 5584 5582 5581 5581 5582 5583 5584 5585 5585 5587 5590 5595 5600 5603 5607 5611 5617 5624 5633 5638 5645 5652 5658 5665 5671 5677 5681 5686 5689 5691 5694 5696 5697 5699 5699
5581 5579 5576 5575 5574 5572 5572 5573 5574 5575 5577 5579 5582 5585 5589 5593 5596 5599 5603 5609 5616 5623 5629 5634 5642 5649 5656 5662 5669 5675 5680 5684 5687 5690 5692 5693 5695 5695
5578 5575 5572 5569 5567 5566 5564 5563 5565 5567 5570 5573 5576 5579 5582 5585 5588 5589 5593 5597 5604 5612 5619 5625 5633 5638 5645 5653 5660 5667 5672 5677 5681 5683 5686 5688 5689 5689
5573 5570 5568 5564 5562 5560 5556 5555 5555 5558 5560 5563 5566 5570 5573 5577 5580 5583 5587 5590 5595 5602 5610 5616 5623 5627 5634 5643 5650 5657 5663 5668 5672 5676 5679 5681 5682 5682
5569 5565 5562 5560 5557 5554 5552 5549 5550 5551 5552 5553 5556 5559 5563 5567 5572 5577 5581 5585 5589 5595 5603 5608 5613 5619 5625 5631 5638 5646 5653 5658 5662 5666 5670 5673 5676 5678
5565 5562 5558 5555 5552 5550 5548 5547 5546 5545 5545 5546 5547 5550 5554 5558 5564 5569 5574 5579 5585 5591 5597 5601 5606 5612 5617 5622 5629 5636 5642 5648 5653 5658 5661 5664 5667 5671
5563 5559 5555 5551 5548 5546 5545 5544 5542 5540 5539 5540 5542 5545 5549 5553 5556 5561 5567 5572 5578 5585 5591 5596 5602 5606 5611 5616 5622 5627 5633 5639 5644 5649 5653 5656 5660 5663
5559 5555 5552 5548 5546 5544 5542 5541 5539 5537 5536 5537 5538 5541 5544 5547 5550 5555 5559 5565 5570 5577 5583 5590 5596 5600 5605 5610 5616 5620 5626 5631 5636 5641 5644 5648 5652 5656
5553 5549 5546 5544 5542 5541 5539 5538 5537 5536 5535 5535 5536 5537 5539 5542 5545 5549 5554 5558 5564 5571 5577 5582 5588 5594 5600 5605 5609 5614 5619 5624 5629 5633 5636 5640 5644 5648
5548 5545 5543 5541 5540 5539 5537 5536 5536 5535 5535 5534 5535 5535 5537 5540 5542 5545 5549 5554 5560 5566 5572 5576 5580 5585 5591 5597 5605 5610 5614 5618 5623 5626 5630 5633 5636 5640
5545 5544 5542 5541 5540 5538 5537 5536 5535 5535 5535 5534 5534 5535 5536 5538 5540 5542 5546 5551 5556 5561 5567 5571 5576 5580 5587 5593 5599 5604 5609 5613 5617 5620 5624 5628 5632 5635
5546 5544 5543 5542 5540 5538 5537 5536 5535 5534 5534 5533 5534 5535 5536 5537 5538 5541 5544 5548 5553 5557 5562 5567 5573 5579 5584 5589 5593 5598 5603 5608 5612 5615 5616 5618 5621 5625
5548 5546 5544 5542 5540 5539 5537 5536 5534 5534 5534 5533 5533 5534 5535 5536 5537 5540 5543 5546 5550 5554 5560 5565 5571 5575 5579 5582 5586 5591 5595 5601 5608 5610 5611 5612 5614 5617
5549 5547 5545 5542 5540 5539 5537 5536 5534 5534 5534 5533 5534 5534 5535 5535 5536 5538 5541 5544 5548 5553 5558 5562 5565 5569 5573 5578 5582 5586 5589 5592 5597 5601 5605 5610 5613 5616
5550 5548 5545 5542 5540 5538 5537 5535 5535 5534 5534 5534 5534 5534 5534 5534 5535 5537 5540 5543 5546 5550 5554 5557 5560 5564 5569 5574 5577 5580 5583 5585 5588 5591 5593 5598 5605 5610